Flag for Germany Weather past 2 weeks in Strausberg, Brandenburg, Germany

Now
37 °F

Fog.


Feels Like: 34 °F
Forecast: 49 / 69 °F
Wind: 5 mph from Northeast

Location: Berlin-Schoenefeld


UV Index: 3 (Moderate)

Visibility: 4 mi


Pressure: 30.07 "Hg

Humidity: 100%

Dew point: 37 °F

Location of StrausbergLocation

Historic Weather in Strausberg

°F

Strausberg temperature yesterday

Maximum temperature yesterday: 52 °F (at 1:20 PM)
Minimum temperature yesterday: 41 °F (at 11:50 PM)
Average temperature yesterday: 46 °F

Past Weeks' High & Low Weather Summary

 TemperatureHumidityPressure
High68 °F (Apr 7, 3:50 PM)100% (Apr 7, 8:20 AM)30.45 "Hg (Apr 7, 8:20 AM)
Low32 °F (Apr 17, 5:20 AM)30% (Apr 16, 3:20 PM)29.68 "Hg (Apr 14, 9:20 AM)
Average49 °F74%30.01 "Hg
* Reported Apr 4 3:20 AM — Apr 19 3:20 AM, Strausberg, Weather by CustomWeather, © 2014

Note: Actual official high and low records may vary slightly from our data, if they occured in-between our weather recording intervals... More about our weather records

Advertising

Historic Weather Conditions — Data for Previous 24 hours

 ConditionsComfort  
Time TempWeatherWind HumidityBarometerVisibility
3:20 AM
Apr 19
37 °FFog.6 mph100%30.04 "HgN/A
2:50 AM37 °FFog.5 mph100%30.04 "HgN/A
2:20 AM37 °FFog.9 mph100%30.04 "HgN/A
1:50 AM39 °FFog.6 mph100%30.01 "HgN/A
1:20 AM39 °FFog.6 mph100%30.01 "HgN/A
12:50 AM41 °FFog.5 mph93%30.01 "HgN/A
12:20 AM41 °FFog.5 mph100%30.01 "HgN/A
11:50 PM
Apr 18
41 °FFog.5 mph93%29.98 "HgN/A
11:20 PM43 °FClear.6 mph93%29.98 "Hg10 mi
10:50 PM43 °FClear.6 mph93%29.98 "Hg10 mi
10:20 PM45 °FClear.6 mph87%29.95 "Hg10 mi
9:50 PM45 °FClear.6 mph93%29.95 "Hg10 mi
9:20 PM45 °FClear.6 mph93%29.92 "Hg10 mi
8:50 PM46 °FPartly sunny.5 mph87%29.92 "HgN/A
8:20 PM46 °FPartly sunny.3 mph87%29.89 "HgN/A
7:50 PM46 °FScattered showers. Partly sunny.6 mph87%29.89 "HgN/A
7:20 PM46 °FScattered showers. Broken clouds.6 mph87%29.89 "HgN/A
6:50 PM48 °FBroken clouds.8 mph82%29.86 "HgN/A
6:20 PM48 °FScattered clouds.12 mph82%29.86 "HgN/A
5:50 PM48 °FScattered clouds.6 mph76%29.83 "HgN/A
5:20 PM50 °FScattered clouds.7 mph71%29.83 "HgN/A
4:50 PM48 °FBroken clouds.7 mph76%29.83 "HgN/A
4:20 PM48 °FSprinkles. Scattered clouds.7 mph76%29.83 "HgN/A
3:20 PM48 °FScattered clouds.7 mph76%29.80 "HgN/A
2:50 PM48 °FBroken clouds.8 mph76%29.80 "HgN/A
2:20 PM50 °FScattered clouds.6 mph71%29.80 "HgN/A
1:50 PM50 °FSprinkles. Scattered clouds.10 mph71%29.80 "HgN/A
1:20 PM52 °FScattered clouds.6 mph72%29.80 "HgN/A
12:50 PM48 °FScattered showers. Scattered clouds.10 mph76%29.80 "HgN/A
12:20 PM48 °FScattered clouds.6 mph71%29.80 "HgN/A
11:50 AM46 °FSprinkles. Broken clouds.8 mph87%29.77 "HgN/A
11:20 AM46 °FBroken clouds.8 mph82%29.77 "HgN/A
10:50 AM46 °FBroken clouds.12 mph82%29.77 "HgN/A
10:20 AM46 °FPartly sunny.9 mph87%29.77 "HgN/A
9:50 AM46 °FBroken clouds.10 mph87%29.77 "HgN/A
9:20 AM45 °FBroken clouds.8 mph87%29.77 "HgN/A
8:50 AM45 °FBroken clouds.7 mph87%29.77 "HgN/A
8:20 AM43 °FSunny.5 mph93%29.77 "Hg10 mi
7:50 AM43 °FPartly sunny.3 mph87%29.77 "HgN/A
7:20 AM43 °FLight rain. Broken clouds.5 mph87%29.77 "HgN/A
6:50 AM43 °FLight rain. Partly cloudy.6 mph87%29.74 "HgN/A
6:20 AM43 °FLight rain. Mostly cloudy.10 mph87%29.74 "Hg4 mi
5:50 AM43 °FLight rain. Passing clouds.7 mph93%29.74 "Hg4 mi
5:20 AM43 °FLight rain. Passing clouds.8 mph93%29.74 "HgN/A
4:50 AM45 °FLight rain. Passing clouds.7 mph93%29.77 "HgN/A
4:20 AM43 °FLight rain. Passing clouds.6 mph87%29.77 "HgN/A
Weather by CustomWeather, © 2014

See weather overview